STARLINK-1723, 46333

Orbit data source: Space-Track

STARLINK-1723, 46333 is a payload satellite owned by SpaceX/Seattle (US) in LEO that was launched on Thu, 03 Sep 2020 UTC via an FALCON 9 launch vehicle from the Air Force Eastern Test Range (AFETR). Payloads include a variety of satellites, spacecraft, and rockets equipped with specific instruments for various scientific and technological missions. These include communications satellites like Starlink; space stations such as the ISS; scientific satellites like the Hubble; Earth observation satellites from companies like Planet Labs, Umbra, and HawkEye 360; GPS; miniature CubeSats for education and research; and military/defense satellites.

Loading next visibility...
STARLINK-1723 details
Identifier
46333, 2020-062J
Orbit
LEO
Last TLE update3 hours ago
Origin
Flag of USSpaceX/Seattle (US)
ManufacturerSpaceX/Seattle
MissionOperational Commercial Communications
Bus & MotorSTARLINK, Unknown motor
Mass260 kg wet, ~248 kg dry
Launch date (UTC)
2020-09-03 (4 years ago)
Launch vehicle
FALCON 9
Launch site
Air Force Eastern Test Range (AFETR)
Object type
Payload
Rocket body
Debris
Shape & HBRBox + 1 Pan, 8.86 m
Radar Cross Section13.562 m², Large (>1 m²)

Expand to show TLE details & history

TLE from 3 hours ago
0 STARLINK-1723
1 46333U 20062J   24337.16472776  .00011959  00000-0  82013-3 0  9990
2 46333  53.0554 292.9699 0001513  90.1575 269.9587 15.06411615234775
Epoch: 2024-12-02T03:57Z
Definitive object data (Epoch: 2024-12-02T03:57:12.478Z)
Latitude-0.00005°
Longitude162.17536°
Altitude548.056 km
Speed7.589 km/s
True Right ascension19h 31m 52s
True Declination0° 00' 00"
Sunlit
Object was in daylight at TLE epoch
Visualization TLE readout
Latitude20.84488°
Longitude178.10337°
Altitude547.234 km
Speed7.592 km/s
Apparent Right ascension19h 04m 27s
Apparent Declination-9° 02' 54"
Sunlit
Object is in daylight
Visualization observer readout
Local Sidereal Time05:01:17
Azimuth309.973° NW
Elevation-48.729°
Doppler factor1
Orbital elements
Apogee altitude548.494 km
Perigee altitude546.399 km
Semi-major axis6,925.584 km
Eccentricity0.0001513
Inclination53.0554°
RAAN292.9699°
Arg. of periapsis90.1575°
True anomaly269.94136°
Mean anomaly269.9587°
Eccentric anomaly269.95003°
Mean motion3.76581 °/min
BSTAR0.00082013
Orbital period95.6 mins
Loading maneuver chart data...
Loading historical data...
Loading historical data...
Loading historical data...
Loading historical data...
Loading historical data...
Loading historical data...
Loading historical data...

STARLINK-1723 Visibility forecast

Observer location: undefined°, undefined

Span
Click to sort rows by Start time (UTC) header in descending order
Start Az.
Max El. time (UTC)
Max El. Az.
Max El.
End time (UTC)
End Az.
6 mins2024-12-02 07:40:15.487Z292.898° NW2024-12-02 07:43:15.487Z222.934° SW34.666°2024-12-02 07:46:15.487Z158.387° S
5 mins2024-12-02 23:14:15.487Z177.961° S2024-12-02 23:16:15.487Z124.482° SE29.014°2024-12-02 23:19:15.487Z70.002° E
6 mins2024-12-03 00:53:15.487Z273.208° WNW2024-12-03 00:55:15.487Z319.714° NNW30.686°2024-12-03 00:59:15.487Z37.221° NE
5 mins2024-12-03 05:55:15.487Z336.82° NNW2024-12-03 05:57:15.487Z28.653° NE31.809°2024-12-03 06:00:15.487Z95.366° ESE
|